Location: Cisewo
(53.3833°N, 14.9000°E)
Time: 10:24:52
(UTC+00:00)

Meteor 2-3 Rocket - Pass Details

Date: 18 April 2021
Orbit: 840 x 887 km, 81.2° (Epoch: 14 May)

Event Time Altitude Azimuth Distance (km) Brightness Sun altitude
Rises 20:36:37 0° 344° (NNW) 3,498 8.2 -18.7°
Reaches altitude 10° 20:39:08 10° 340° (NNW) 2,551 7.3 -18.9°
Maximum altitude 20:44:45 54° 265° (W) 1,058 4.3 -19.4°
Enters shadow 20:48:27 21° 196° (SSW) 1,855 5.1 -19.7°
